Home > Weather > Rüsselsheim > Past weeks

Flag for Germany Past Weather in Rüsselsheim, Hesse, Germany — Yesterday and Last 2 Weeks

Now
76 °F

Partly sunny.


Feels Like: 78 °F
Forecast: 60 / 73 °F
Wind: 10 mph from West

Location: Wiesbaden Airport

Current Time: Jul 27, 2016 at 1:44:21 PM

Latest Report: Jul 27, 2016 at 12:58 PM


Visibility: N/A

Pressure: 30.03 "Hg

Humidity: 45%

Dew Point: 53 °F

Location of RüsselsheimLocation

Past Weather in Rüsselsheim — Graph

°F

Rüsselsheim Temperature Yesterday

Maximum temperature yesterday: 82 °F (at 3:58 PM)
Minimum temperature yesterday: 67 °F (at 12:58 AM)
Average temperature yesterday: 72 °F

High & Low Weather Summary for the Past Weeks

 TemperatureHumidityPressure
High93 °F (Jul 20, 5:58 PM)88% (Jul 21, 5:58 AM)30.31 "Hg (Jul 21, 5:58 AM)
Low52 °F (Jul 16, 4:58 AM)24% (Jul 19, 4:58 PM)29.86 "Hg (Jul 12, 6:58 PM)
Average70 °F59%30.08 "Hg
* Reported Jul 12 11:58 AM — Jul 27 11:58 AM, Rüsselsheim, Weather by CustomWeather, © 2016

Note: Actual official high and low records may vary slightly from our data, if they occured in-between our weather recording intervals... More about our weather records

Advertising

Rüsselsheim Weather History for the Previous 24 Hours

Scroll right to see more
 ConditionsComfort  
Time TempWeatherWind HumidityBarometerVisibility
11:58 AM
Wed, Jul 27
73 °FBroken clouds.7 mph55%30.05 "HgN/A
10:59 AM73 °FScattered clouds.5 mph57%30.06 "HgN/A
10:58 AM73 °FPartly sunny.5 mph57%30.05 "HgN/A
9:58 AM70 °FScattered clouds.5 mph69%30.05 "HgN/A
8:58 AM67 °FOvercast.5 mph77%30.05 "HgN/A
2:58 AM64 °FPassing clouds.1 mph82%30.05 "HgN/A
1:58 AM65 °FClear.3 mph79%30.06 "HgN/A
12:58 AM65 °FPassing clouds.6 mph81%30.07 "HgN/A
11:58 PM
Tue, Jul 26
67 °FPassing clouds.7 mph77%30.08 "HgN/A
10:58 PM67 °FPassing clouds.5 mph78%30.09 "HgN/A
9:58 PM69 °FPartly sunny.8 mph77%30.08 "HgN/A
8:58 PM71 °FSunny.6 mph74%30.08 "HgN/A
7:58 PM73 °FSunny.6 mph75%30.07 "HgN/A
6:58 PM72 °FOvercast.5 mph80%30.07 "HgN/A
5:58 PM72 °FThundershowers. Broken clouds.5 mph83%30.08 "HgN/A
5:04 PM72 °FThunderstorms. Mostly cloudy.2 mph73%30.10 "Hg1 mi
4:58 PM75 °FStrong thunderstorms. Mostly cloudy.5 mph65%30.08 "Hg1 mi
3:58 PM82 °FSunny.6 mph40%30.07 "HgN/A
2:58 PM81 °FScattered clouds.5 mph46%30.08 "HgN/A
1:58 PM79 °FPartly sunny.7 mph48%30.09 "HgN/A
Weather by CustomWeather, © 2016

See weather overviewHow to use our weather pages